Location: Capelle
(50.3413°N, 1.9974°E)
Time: 18:59:16
(UTC+00:00)

Resurs 01 Rocket - Pass Details

Date: 19 April 2026
Orbit: 626 x 636 km, 97.7° (Epoch: 12 May)

Event Time Altitude Azimuth Distance (km) Brightness Sun altitude
Rises 20:12:34 0° 222° (SW) 2,911 5.1 -12.1°
Reaches altitude 10° 20:16:28 10° 258° (WSW) 2,009 4.8 -12.6°
Maximum altitude 20:17:44 11° 275° (W) 1,938 5.0 -12.8°
Drops below altitude 10° 20:19:01 10° 292° (WNW) 2,012 5.5 -13.0°
Sets 20:22:57 0° 328° (NNW) 2,926 6.5 -13.5°
